SCP
0 0 0 0 0 0 0 0 0 0 0 0 0 1 1 1 1 1 1 1 2 2 2 2 2 2 2 1 1 1 1 1 1 1 1 1 1 1 1 1 1 1 1 1
0 0 0 0 0 0 0 0 0 0 0 0 1 1 1 1 1 1 1 1 2 2 2 2 2 2 2 2 2 2 2 1 1 1 1 1 1 1 1 1 1 1 1 1
0 0 0 0 0 0 0 0 0 0 0 0 1 1 1 1 1 1 1 1 1 2 2 2 2 2 2 2 2 2 2 2 2 2 1 1 1 1 1 1 1 1 1 1
0 0 0 0 0 0 0 0 0 0 0 0 1 1 1 1 1 1 1 1 1 1 1 2 1 1 1 2 2 2 2 2 2 1 1 1 1 1 1 1 1 1 1 1
0 0 0 0 0 0 0 0 0 0 0 0 1 1 1 1 1 1 1 1 1 1 1 1 2 2 2 2 2 1 1 1 1 1 1 1 1 1 1 1 1 1 1 1
0 0 0 0 0 0 0 0 0 0 1 1 1 1 1 1 1 1 1 1 1 1 1 2 2 2 2 2 1 1 1 1 1 1 1 1 1 1 1 1 1 1 1 1
0 0 0 0 0 0 0 1 1 1 1 1 1 1 1 1 2 2 2 2 2 2 2 2 2 2 2 1 1 1 1 1 1 1 1 1 1 1 1 1 1 1 1 0
0 0 0 1 1 1 1 1 1 1 1 1 1 1 2 2 2 2 2 2 2 2 2 2 2 1 1 1 1 1 1 1 1 1 1 1 1 1 1 1 1 1 0 0
0 0 1 1 1 1 1 1 1 1 1 1 1 1 1 2 2 2 2 2 2 2 2 1 1 1 1 1 1 1 1 1 1 1 1 1 1 1 0 0 0 0 0 0
0 0 1 1 1 1 1 1 1 1 1 1 1 1 1 1 1 1 1 1 1 1 1 1 1 1 1 1 1 1 1 1 1 1 1 1 0 0 0 0 0 0 0 0
1 1 0 0 1 1 1 1 1 1 1 1 1 1 1 1 1 1 1 1 1 1 1 1 1 1 1 1 1 1 1 1 1 1 1 0 0 0 0 0 0 0 0 0
1 1 1 1 0 0 1 1 1 1 1 1 1 1 1 1 1 1 1 1 1 1 1 1 1 1 1 1 1 1 1 1 1 1 0 0 0 0 0 0 0 0 0 0
1 1 1 1 0 0 1 1 1 1 1 1 1 1 1 1 1 1 1 1 1 1 1 1 1 1 1 1 1 1 1 1 1 0 0 0 0 0 0 0 0 0 0 0
1 1 1 1 1 1 1 1 1 1 1 1 1 1 1 1 1 1 1 1 1 1 1 1 1 1 1 1 1 1 1 1 1 0 0 0 0 0 0 0 0 0 0 0
0 0 0 1 1 1 1 1 1 1 1 1 1 1 1 1 1 1 1 1 1 1 1 1 1 1 1 1 1 1 1 1 0 0 0 0 0 0 0 0 0 0 0 0
0 0 0 0 0 0 0 1 1 1 1 1 1 1 1 1 1 1 1 1 1 1 1 1 0 0 0 0 1 1 1 0 0 0 0 0 0 0 0 0 0 0 0 0
0 0 0 0 0 0 0 0 0 0 0 1 1 1 1 1 1 1 1 1 0 0 0 0 0 0 0 0 0 0 0 0 0 0 0 0 0 0 0 0 0 0 0 0
0 0 0 0 0 0 0 0 0 0 0 0 0 0 0 0 0 1 0 0 0 0 0 0 0 0 0 0 0 0 0 0 0 0 0 0 0 0 0 0 0 0 0 0
0 0 0 0 0 0 0 0 0 0 0 0 0 0 0 0 0 0 0 0 0 0 0 0 0 0 0 0 0 0 0 0 0 0 0 0 0 0 0 0 0 0 0 0
0 0 0 0 0 0 0 0 0 0 0 0 0 0 0 0 0 0 0 0 0 0 0 0 0 0 0 0 0 0 0 0 0 0 0 0 0 0 0 0 0 0 0 0
0 0 0 0 0 0 0 0 0 0 0 0 0 0 0 0 0 0 0 0 0 0 0 0 0 0 0 0 0 0 0 0 0 0 0 0 0 0 0 0 0 0 0 0
0 0 0 0 0 0 0 0 0 0 0 0 0 0 0 0 0 0 0 0 0 0 0 0 0 0 0 0 0 0 0 0 0 0 0 0 0 0 0 0 0 0 0 0
0 0 0 0 0 0 0 0 0 0 0 0 0 0 0 0 0 0 0 0 0 0 0 0 0 0 0 0 0 0 0 0 0 0 0 0 0 0 0 0 0 0 0 0
0 0 0 0 0 0 0 0 0 0 0 0 0 0 0 0 0 0 0 0 0 0 0 0 0 0 0 0 0 0 0 0 0 0 0 0 0 0 0 0 0 0 0 0
0 0 0 0 0 0 0 0 0 0 0 0 0 0 0 0 0 0 0 0 0 0 0 0 0 0 0 0 0 0 0 0 0 0 0 0 0 0 0 0 0 0 0 0
0 0 0 0 0 0 0 0 0 0 0 0 0 0 0 0 0 0 0 0 0 0 0 0 0 0 0 0 0 0 0 0 0 0 0 0 0 0 0 0 0 0 0 0
0 0 0 0 0 0 0 0 0 0 0 0 0 0 0 0 0 0 0 0 0 0 0 0 0 0 0 0 0 0 0 0 0 0 0 0 0 0 0 0 0 0 0 0
Wind_Speed
12 10 11 14 15 15 14 12 11 8 7 7 5 5 6 7 5 5 7 8 7 6 6 5 4 4 5 5 5 6 5 5 4 4 4 4 4 4 3 3 3 2 1 1
12 13 11 13 15 15 14 13 10 8 5 4 5 4 5 5 4 5 5 6 7 7 6 5 4 4 4 4 4 5 4 4 4 4 4 3 3 3 3 2 2 2 1 1
11 12 10 13 13 13 12 11 10 9 6 3 4 5 5 5 4 5 5 5 5 6 6 5 4 3 3 4 4 4 4 3 4 4 4 3 3 3 3 3 2 2 2 2
10 10 13 8 9 10 9 8 7 5 3 3 3 5 4 4 4 5 5 6 5 4 5 5 4 4 3 4 4 4 4 4 4 4 4 4 3 3 3 3 3 2 2 2
9 10 11 7 7 8 8 6 4 5 4 5 6 6 4 5 5 6 6 5 4 5 4 4 4 4 4 4 4 4 4 4 4 4 3 3 4 3 3 3 3 3 2 3
8 9 8 4 2 2 3 5 2 3 3 3 4 4 4 6 6 7 6 6 5 4 5 5 4 4 4 4 3 3 4 4 3 3 3 3 3 3 3 3 3 3 3 3
11 9 5 2 1 3 5 3 2 3 3 4 3 4 7 7 7 7 6 6 5 5 6 5 5 4 4 3 3 3 4 4 4 4 4 3 3 3 3 3 3 4 4 4
10 10 5 3 1 1 4 5 5 5 6 7 6 7 9 8 7 6 6 5 6 6 6 5 5 4 4 3 3 3 4 4 4 4 3 4 3 3 3 3 4 4 4 4
3 2 3 5 6 6 4 4 4 4 5 7 7 8 8 7 6 6 6 5 5 6 6 5 4 4 4 4 4 4 4 4 4 4 3 4 4 3 2 2 3 3 3 3
3 5 4 5 6 5 4 5 4 4 5 6 7 7 7 6 6 5 5 5 5 5 5 5 4 5 4 4 4 4 4 4 5 4 4 5 4 4 3 2 2 2 2 3
3 4 4 5 3 2 3 4 4 4 5 6 7 6 6 5 5 5 5 5 5 5 5 5 5 5 4 4 4 4 4 4 5 4 5 6 7 6 5 6 4 3 3 3
1 1 1 3 1 2 3 3 3 4 4 5 6 6 6 6 5 5 5 5 5 5 5 5 5 5 4 4 4 4 3 3 4 4 5 6 7 8 13 11 12 12 10 7
2 2 3 1 2 2 2 3 3 3 3 4 4 6 6 6 6 6 6 5 5 5 5 4 5 5 4 3 3 3 3 3 3 4 4 5 5 6 6 8 12 13 12 10
2 2 1 1 2 2 2 2 3 4 4 4 4 5 6 6 7 6 6 5 5 5 5 5 5 5 4 4 4 4 3 4 3 3 4 4 5 4 5 5 5 6 7 8
1 0 1 1 2 2 2 3 3 4 4 4 5 5 6 7 7 6 5 5 5 5 5 5 5 4 3 4 4 4 3 3 3 3 4 4 4 4 5 6 6 5 4 4
1 1 1 2 2 1 2 3 3 3 4 5 5 5 6 7 7 6 6 5 6 6 5 5 5 4 4 3 3 4 4 5 4 3 4 4 4 5 5 6 6 5 5 4
2 3 2 2 2 2 2 3 3 3 4 5 7 7 7 8 8 7 6 6 6 6 6 5 4 4 3 3 4 3 3 5 6 4 4 4 4 4 5 5 6 6 6 5
3 3 3 3 3 3 3 3 4 5 5 6 6 7 8 8 7 7 6 6 7 7 6 5 4 4 4 4 4 3 3 4 4 4 5 4 5 5 6 6 7 7 6 6
3 3 3 3 3 4 4 5 6 6 7 6 7 7 7 7 7 7 7 7 7 6 5 5 6 5 5 5 4 3 4 5 5 5 5 5 5 6 6 6 7 7 6 5
3 4 5 5 4 5 6 7 7 7 7 7 8 8 8 7 7 7 7 7 5 4 4 4 5 5 5 5 5 4 5 6 6 6 5 5 6 6 6 7 7 7 6 5
5 5 6 6 7 7 7 8 8 8 7 8 8 8 8 7 7 7 6 6 5 5 4 5 4 4 4 4 4 5 5 6 6 6 5 6 6 6 6 6 6 6 5 5
6 6 7 7 7 7 7 7 8 8 8 8 8 8 9 8 7 7 7 5 4 4 3 4 4 5 5 4 5 5 5 5 5 5 5 6 5 5 5 6 5 5 5 5
6 6 7 7 7 7 8 8 8 8 8 8 8 8 8 7 5 6 6 4 4 5 4 5 5 6 5 3 4 4 5 6 6 6 5 5 5 5 5 6 5 5 5 4
7 7 7 8 8 8 8 8 8 7 8 8 8 8 7 6 6 5 6 7 7 7 5 5 6 5 4 3 4 5 5 6 5 5 5 5 5 5 5 5 5 5 5 5
7 7 8 8 8 7 8 9 9 9 8 7 8 8 6 5 6 6 6 7 8 7 6 5 4 3 3 3 5 5 5 5 5 5 5 5 5 5 5 5 5 5 5 5
6 6 5 5 5 5 6 6 6 6 7 7 6 6 6 6 7 6 6 7 9 7 6 5 4 3 3 5 6 6 6 6 5 5 5 5 5 5 5 5 6 5 4 4
6 6 5 5 5 5 5 5 6 6 6 6 7 6 6 6 7 7 7 6 6 6 5 5 4 4 4 5 5 5 5 5 5 4 4 4 4 4 4 5 4 4 4 4
Wind_Direction
267 252 225 221 227 227 228 235 246 233 198 179 179 155 137 117 119 125 123 122 118 117 110 109 114 120 124 128 135 143 149 158 161 158 164 170 169 164 164 172 187 159 158 191
258 260 243 228 225 226 225 229 237 243 237 154 134 137 126 125 141 133 130 130 125 122 118 117 117 116 115 119 126 133 146 157 156 158 157 154 155 152 146 150 136 123 148 177
250 244 246 233 224 223 223 226 229 230 224 160 134 134 120 115 125 122 113 97 114 125 126 124 123 114 122 126 128 136 141 142 140 140 140 139 144 136 138 136 126 121 127 114
245 242 240 230 214 221 222 225 223 213 165 158 129 109 107 118 119 111 108 105 97 97 114 128 128 124 125 133 135 136 134 135 137 139 138 134 129 125 125 121 119 113 114 110
241 231 236 237 223 214 209 213 216 203 190 175 154 152 116 86 95 103 103 102 101 104 109 110 116 118 120 121 124 130 132 129 127 129 127 132 134 133 131 123 115 112 101 90
247 242 232 227 254 264 208 194 179 170 176 162 170 189 114 85 87 89 93 93 96 102 104 95 96 103 110 115 125 129 122 115 112 114 116 123 122 130 130 126 124 118 103 88
243 248 246 308 294 234 220 157 89 114 114 105 83 87 105 99 88 86 87 90 94 95 93 88 92 101 107 105 104 109 113 112 108 106 108 111 116 124 122 120 119 114 107 95
231 239 243 353 220 120 80 66 62 74 90 97 101 105 101 94 90 88 86 89 92 87 87 86 87 94 98 89 89 99 110 116 115 111 118 117 111 120 127 135 133 124 113 97
210 215 73 43 66 75 79 78 74 71 83 114 117 110 105 106 101 92 86 82 84 92 90 84 81 87 92 79 80 90 100 110 107 99 92 97 101 101 113 124 125 121 124 115
174 151 116 73 65 63 55 66 66 82 93 103 107 111 113 113 107 98 90 87 85 90 89 86 78 76 83 87 90 99 103 100 101 99 92 77 68 65 66 57 80 97 98 105
189 149 134 93 57 57 69 70 72 75 88 105 113 115 112 109 105 98 94 89 87 88 89 88 85 82 78 81 85 91 99 107 110 103 95 80 67 47 52 53 44 62 72 82
201 162 111 112 82 52 75 72 75 89 91 103 113 116 112 109 104 99 93 87 87 84 85 83 85 80 71 80 95 104 114 117 119 116 110 107 102 83 56 62 63 62 65 78
33 23 59 62 70 68 91 98 88 88 95 97 102 112 114 113 110 103 97 93 88 83 83 81 83 80 71 77 88 93 94 101 113 121 123 121 117 113 104 75 66 62 60 67
38 58 80 70 92 82 80 92 95 92 94 96 103 110 111 109 107 104 100 98 94 89 85 79 78 73 63 63 69 81 91 96 105 112 113 112 112 113 114 114 103 84 65 64
317 119 167 115 94 92 93 100 101 99 100 100 97 101 108 109 106 102 100 98 94 89 82 78 73 65 55 63 70 77 85 85 86 94 102 106 109 104 99 99 100 102 99 82
289 283 152 139 146 147 140 135 125 116 112 109 104 104 104 106 106 103 98 94 96 90 79 72 66 55 55 69 75 80 80 82 90 99 105 107 104 103 102 102 100 98 93 93
246 234 205 176 167 161 155 142 132 126 118 117 114 112 107 106 103 96 89 85 87 82 74 69 62 56 67 78 83 89 95 93 91 90 89 93 95 97 100 102 100 94 84 70
242 234 217 186 168 157 146 138 129 118 114 116 116 116 114 111 108 103 99 95 88 77 64 60 63 71 73 74 72 78 89 94 91 87 87 85 91 95 97 98 99 98 96 82
208 197 175 155 152 145 133 125 118 114 115 115 114 110 106 107 107 103 97 91 86 79 60 55 58 71 74 70 74 88 95 95 91 88 87 89 90 91 93 94 94 93 92 90
177 172 153 139 134 124 124 122 118 116 117 117 114 111 106 103 103 100 94 85 73 72 67 61 64 66 67 66 71 89 95 95 95 95 96 96 91 89 89 90 92 92 89 86
150 146 138 130 119 118 121 124 125 125 123 121 118 113 109 104 99 96 93 85 71 67 69 66 64 63 62 65 72 83 88 90 92 92 92 90 90 91 92 92 94 93 90 87
132 127 126 120 117 118 119 121 124 124 122 119 119 117 114 110 104 95 87 84 81 74 82 81 75 60 51 69 88 89 92 96 95 93 94 95 96 97 96 96 95 92 88 87
119 121 121 118 116 116 117 120 124 125 125 123 121 119 116 113 114 114 106 97 95 85 81 75 71 66 56 80 90 95 94 96 97 96 96 98 101 100 98 98 97 96 95 94
120 122 121 119 118 118 118 118 117 117 119 119 119 119 121 119 109 105 108 113 106 105 96 86 84 73 66 87 94 97 95 94 94 96 96 94 95 98 98 98 97 97 94 91
120 120 120 123 124 124 126 127 125 126 125 121 121 122 121 117 118 118 119 120 124 121 116 115 112 99 105 107 106 103 100 97 97 98 95 92 92 94 94 95 95 93 92 91
122 119 119 117 116 124 129 130 129 129 129 127 124 123 122 122 123 125 128 130 129 133 129 126 131 135 114 104 103 101 101 105 100 96 93 91 90 89 90 90 93 93 93 92
122 122 118 114 116 122 124 125 126 128 126 125 124 125 125 124 123 125 128 130 130 128 122 120 118 114 108 104 102 100 97 95 93 89 89 86 84 83 85 85 84 86 89 86